Weather in Macha

Russia / Sakha (Yakutia) Republic     59°54′22″N   117°34′59″E
temp.,
°C
wind,
m/s
gust,
m/s
humid.,
%
clouds,
%
prec.,
mm/h
press.,
hPa
HPBL,
m
13 may, thu
thu1300:00+2wnw228498 0.0 101439
03:00+1nw228894 0.0 101525
06:000nw248790 0.0 1015132
09:00+5nnw345952 0.0 1015634
12:00+9n453820 0.0 10141863
15:00+11n45325 0.0 10132139
18:00+11n453346 0.0 10132201
21:00+7n22505 0.0 101515
14 may, fri
fri1400:00+4nnw11583 0.0 101510
03:00+2w11660 0.0 101610
06:00+2wsw116748 0.0 101611
09:00+8w11466 0.0 1016414
12:00+12nnw233236 0.0 10142111
15:00+14wnw132874 0.0 10122510
18:00+14nnw232868 0.0 10112455
21:00+10s114487 0.0 101110
15 may, sat
sat1500:00+6ssw22565 0.0 101211
03:00+4ssw22625 0.0 101111
06:00+5ssw22615 0.0 101035
09:00+11ssw13405 0.0 1009390
12:00+15ssw23275 0.0 10062471
15:00+17ssw232447 0.0 10042708
18:00+17wsw342461 0.0 10032754
21:00+12sw224440 0.0 100221
16 may, sun
sun1600:00+8ssw225359 0.0 100220
03:00+7w497375 0.0 1003384
06:00+6w2772100 0.0 1003457
09:00+4ssw2491100 2.9 1004529
12:00+9s365697 0.8 10011430
15:00+10w4656100 1.1 9991466
18:00+9wnw365973 1.1 9991355
21:00+6wnw256762 1.4 1001133
17 may, mon
mon1700:00+4w3977100 0.1 1003759
03:00+2w267626 0.1 1003134
06:00+1sw25755 0.0 1003204
09:00+5wnw4746100 0.1 10021812
12:00+7wnw6830100 0.2 10022666
15:00+7wnw5723100 0.2 10023202
18:00+7wnw682470 0.0 10032762
21:00+3nw58386 0.0 1006811